www.pogodaiklimat.ru

Погода и климат >> Архив погоды >> Мексика >> Arriaga


ПОГОДА в Arriaga

  • Прогноз погоды в Arriaga
  • Монитор погоды в Arriaga
  • Климат города

АРХИВ ПОГОДЫ в Arriaga

Время (UTC), дата Ветер
(напр.,м/с)
 
Видим.   Явления Облачность Т
(С)
Тd
(С)
f
(%)
Тe
(С)
Тes
(С)
Комфортность P
(гПа)
Po
(гПа)
Тmin
(С)
Tmax
(С)
R
(мм)
R24
(мм)
S
(см)
00 15.02 С 2 3000 м 4/4 600 м
[Sc diur, vesp]
+31.0 +24.5 68 +43 +43 опасность
перегрева
1012.5 1006.1 +24.5 +36.8
03 15.02 С 4 1000 м 3/3 840 м
[Sc diur, vesp]
+27.2 +24.2 84 +38 +38 очень
душно
1015.0 1009.5
06 15.02 С 4 1000 м 1/1 840 м
[Sc diur, vesp]
+27.2 +22.8 77 +36 +36 очень
душно
1015.2 1009.7 +24.5 +36.8
09 15.02 С 3 1000 м 1/1 840 м
[Sc diur, vesp]
+27.0 +22.9 78 +36 +36 очень
душно
1014.1 1008.6
12 15.02 С 3 1000 м 3/3 840 м
[Sc diur, vesp]
+26.0 +23.2 85 +35 +35 очень
душно
1015.3 1009.8 +24.6 +36.8
15 15.02 С 3 3000 м 3/3 840 м
[Sc diur, vesp]
+28.4 +23.6 75 +39 +43 очень
душно
1017.0 1011.4
18 15.02 С 3 3000 м 4/4 840 м
[Sc diur, vesp]
+32.0 +25.1 67 +46 +54 опасность
перегрева
1015.1 1009.6 +24.6 +35.6
21 15.02 С 3 3000 м 4/4 840 м
[Sc diur, vesp]
+32.2 +25.6 68 +47 +52 опасность
перегрева
1011.3 1005.8
00 16.02 С 3 3000 м 3/3 600 м
[Sc diur, vesp]
+30.2 +23.8 69 +42 +42 опасность
перегрева
1011.7 1006.3 +24.6 +37.8
03 16.02 С 2 1000 м 3/3 840 м
[Sc diur, vesp]
+28.2 +23.8 77 +39 +39 очень
душно
1013.5 1008.0
06 16.02 С 2 1000 м 3/3 600 м
[Sc diur, vesp]
+27.6 +22.9 76 +37 +37 очень
душно
1014.0 1008.5 +24.6 +37.8
12 16.02 С 3 1000 м 3/3 840 м
[Sc diur, vesp]
+26.8 +24.6 88 +38 +38 очень
душно
1013.1 1007.5 +25.0 +37.8
15 16.02 С 1 4000 м 1/1 840 м
[Cu hum]
+29.2 +23.5 71 +40 +47 очень
душно
1014.3 1008.8
18 16.02 С 1 4000 м 1/1 840 м
[Cu hum]
+29.2 +23.5 71 +40 +58 опасность
солнечного
удара
1014.3 1008.8
21 16.02 штиль 0 4000 м 1/1 840 м
[Cu hum]
+35.6 +24.9 54 +49 +60 опасность
перегрева
1010.8 1005.3
00 17.02 штиль 0 3000 м 3/3 600 м
[Cu hum]
+32.4 +25.9 69 +48 +48 опасность
перегрева
1011.5 1006.0 +25.0 +38.8
03 17.02 С 4 100 м ясно +27.8 +23.7 78 +38 +38 очень
душно
1013.1 1007.7
06 17.02 С 4 100 м ясно +27.0 +24.0 84 +37 +37 очень
душно
1003.1 1007.9 +23.0 +30.6
09 17.02 С 6 100 м ясно +27.2 +21.6 71 +35 +35 очень
душно
1012.0 1006.4
12 17.02 С 6 1000 м ясно +26.8 +22.0 75 +35 +35 очень
душно
1013.0 1007.5 +25.0 +30.6
15 17.02 С 7 4000 м дым ясно +28.4 +23.8 76 +39 +41 очень
душно
1015.1 1009.5
18 17.02 С 1 4000 м дым ясно +34.6 +27.3 66 +53 +74 опасность
перегрева
1013.8 1008.3 +27.0 +36.0
21 17.02 штиль 0 4000 м дым ясно +35.6 +20.8 42 +42 +55 опасность
перегрева
1010.9 1005.4
00 18.02 штиль 0 4000 м дым 4/4 600 м
[Cu med, cong]
+31.0 +24.2 67 +43 +43 опасность
перегрева
1011.1 1006.0 +27.0 +31.4
03 18.02 С 2 100 м ясно +29.6 +24.9 76 +42 +42 опасность
перегрева
1013.3 1007.8
06 18.02 С 4 100 м ясно +29.0 +25.2 80 +42 +42 опасность
перегрева
1013.3 1007.9 +25.0 +34.2
09 18.02 С 3 100 м ясно +27.6 +23.2 77 +37 +37 очень
душно
1012.4 1006.9
12 18.02 штиль 0 1000 м ясно +27.4 +22.7 76 +36 +36 очень
душно
1012.9 1007.4 +22.0 +30.4
15 18.02 штиль 0 5000 м ясно +28.4 +21.0 64 +36 +45 очень
душно
1014.5 1008.9
18 18.02 С 1 5000 м ясно +35.4 +28.3 67 +57 +77 опасность
перегрева
1013.0 1007.5 +26.0 +37.4
21 18.02 штиль 0 5000 м 4/4 800 м
[Cu hum]
+32.2 +24.7 65 +45 +53 опасность
перегрева
1011.1 1005.6
00 19.02 штиль 0 5000 м 4/4 600 м
[Cu hum]
+31.6 +26.0 72 +47 +47 опасность
перегрева
1010.9 1005.5 +22.0 +37.5
03 19.02 С 2 100 м ясно +29.0 +21.4 64 +37 +37 очень
душно
1012.2 1006.5
06 19.02 С 2 100 м ясно +28.0 +20.3 63 +34 +34 очень
душно
1012.1 1006.7 +22.0 +37.5
09 19.02 С 2 100 м ясно +27.6 +22.0 72 +36 +36 очень
душно
1011.5 1005.9
12 19.02 штиль 0 1000 м ясно +26.4 +21.0 72 +33 +33 очень
душно
1012.1 1006.5 +25.0 +37.5
15 19.02 С 2 5000 м 1/1 800 м
[Cu hum]
+27.6 +21.7 70 +35 +42 очень
душно
1013.8 1008.2
18 19.02 штиль 0 5000 м 3/3 800 м
[Cu hum]
+34.2 +28.3 71 +55 +72 опасность
перегрева
1012.7 1007.2 +25.0 +35.8
21 19.02 С 1 4000 м 3/3 840 м
[Cu hum]
+33.2 +27.8 73 +53 +61 опасность
перегрева
1009.7 1004.2
00 20.02 штиль 0 3000 м 4/0 2000 м
[Ac trans]
+29.4 +26.5 84 +45 +45 опасность
перегрева
1010.4 1004.9 +25.0 +36.0
03 20.02 штиль 0 1000 м 9/0 2000 м
[Ac As]
+27.2 +25.6 91 +40 +40 очень
душно
1012.3 1006.8
06 20.02 штиль 0 1000 м 5/0 2000 м
[Ac trans]
+26.0 +24.6 92 +37 +37 очень
душно
1013.1 1007.6 +25.0 +30.6
09 20.02 штиль 0 1000 м ясно +25.2 +23.6 91 +34 +34 очень
душно
1012.5 1006.9
12 20.02 штиль 0 3000 м ясно +23.0 +20.0 83 +30 +30 очень
душно
1013.1 1007.5 +22.0 +36.0
15 20.02 штиль 0 5000 м 3/0 2000 м
[Ac lent]
+25.2 +23.0 88 +34 +41 очень
душно
1014.8 1009.2
18 20.02 штиль 0 5000 м 3/3 840 м
[Cu hum]
+34.0 +28.9 75 +57 +74 опасность
перегрева
1014.3 1008.7 +24.0 +35.6
21 20.02 С 1 5000 м 3/3 840 м
[Sc]
+34.4 +25.1 59 +48 +57 опасность
перегрева
1012.2 1006.7
00 21.02 штиль 0 5000 м ясно +30.4 +25.0 73 +44 +44 опасность
перегрева
1011.9 1006.4 +24.0 +36.0
03 21.02 штиль 0 3000 м ясно +26.8 +25.4 92 +39 +39 очень
душно
1013.8 1008.3
06 21.02 штиль 0 3000 м ясно +24.6 +22.2 87 +32 +32 очень
душно
1014.7 1009.2 +24.0 +36.0
09 21.02 штиль 0 1000 м ясно +22.2 +20.5 90 +29 +29 очень
душно
1014.1 1008.1
12 21.02 штиль 0 3000 м ясно +20.6 +18.2 86 +24 +24 комфорт 1013.8 1008.1 +20.0 +36.0
15 21.02 штиль 0 4000 м 1/1 840 м
[Cu hum]
+26.8 +23.0 80 +36 +45 очень
душно
1015.3 1009.7
18 21.02 С 1 4000 м 3/3 840 м
[Cu hum]
+32.0 +25.3 68 +46 +61 опасность
перегрева
1014.2 1008.6 +20.0 +37.0
21 21.02 С 3 4000 м 1/1 840 м
[Cu hum]
+35.0 +27.2 64 +53 +61 опасность
перегрева
1012.4 1006.9

 

Местоположение метеостанции Arriaga (Мексика): широта 16.23 долгота -93.90 высота над уровнем моря 48 м.

В архиве по умолчанию представлена погода в Arriaga за последнюю неделю. Архивные данные за месяц целиком и за предыдущие месяцы, начиная с января 2011 года, Вы можете получить, выбрав интересующий диапазон дат из раскрывающегося списка и нажав кнопку "Ввод!".

Внимание! Время в таблицах - всемирное. Для получения местного времени необходимо прибавить поправку, которая в Arriaga равна -6 ч.

Смотрите также архив погоды в соседних городах и на ближайших метеорологических станциях:

Погода в Tuxtla Gutierrez (Мексика) (100 км)
Погода в Salina Cruz (Мексика) (137 км)
Погода в Sn. Cristobal Las Casas (Мексика) (147 км)
Погода в Comitan (Мексика) (189 км)
Погода в Coatzacoalcos (Мексика) (218 км)
Погода в Villahermosa (Мексика) (220 км)
Погода в Tapachula City (Мексика) (229 км)
Погода в Huehuetenango (Гватемала) (280 км)
Погода в Puerto Angel (Мексика) (283 км)
Погода в Oaxaca (Мексика) (313 км)

Пояснения к столбцам:

Ветер - указаны скорость ветра в м/с - средняя за 10 мин, порывы в срок и между сроками (в фигурных скобках) и направление, откуда дует ветер: С - северный, СВ - северо-восточный, В - восточный, ЮВ - юго-восточный, Ю - южный, ЮЗ - юго-западный, З - западный, СЗ - северо-западный.
Видимость - горизонтальная дальность видимости в метрах или километрах. При видимости от 1 до 10 км при отсутствии осадков обычно наблюдается дымка, при ухудшении видимости до 1 км и менее - туман. В сухую погоду видимость может ухудшаться дымом, пылью или мглою.
Явления - указаны атмосферные явления, наблюдавшиеся в срок или в последний час перед сроком; фигурными скобками обозначены явления, наблюдавшиеся между сроками (за 1-3 часа до срока); квадратными скобками обозначены град или гололедные отложения с указанием их диаметра в мм.
Облачность - указаны через наклонную черту общая и нижняя облачность в баллах и высота нижней границы облаков в метрах; квадратными скобками обозначены формы облаков: Ci - перистые, Cs - перисто-слоистые, Cc - перисто-кучевые, Ac - высококучевые, As - высокослоистые, Sc - слоисто-кучевые, Ns - слоисто-дождевые, Cu - кучевые, Cb - кучево-дождевые. Подробнее классификацию облаков см. в Атласе облаков (PDF).
T - Температура воздуха - температура, измеренная на высоте 2 м над землей.
Td - Температура точки росы - температура, при понижении до которой содержащийся в воздухе водяной пар достигнет насыщения.
f - Относительная влажность воздуха - влажноcть воздуха, измеренная на высоте 2 м над землей.
Te - Эффективная температура - температура, которую ощущает одетый по сезону человек в тени. Характеристика душности погоды. При расчете учитывается влияние влажности воздуха и скорости ветра на теплоощущения человека.
Tes - Эффективная температура на солнце - температура, которую ощущает человек, с поправкой на солнечный нагрев. Характеристика знойности погоды. Зависит от высоты солнца над горизонтом, облачности и скорости ветра. Ночью, в пасмурную погоду, а также при ветре 12 м/с и более поправка равна нулю.
P - Атмосферное давление - приведенное к уровню моря атмосферное давление.
Po - Атмосферное давление - измеренное на уровне метеостанции атмосферное давление.
Tmin - Минимальная температура - минимум температуры воздуха на высоте 2 м над землей.
Tmax - Максимальная температура - максимум температуры воздуха на высоте 2 м над землей.
R - Количество осадков - Количество выпавших осадков за период времени, мм. При наведении курсора мыши на число - период времени, за который выпало указанное количество осадков.
R24 - Количество осадков - Количество выпавших осадков за 24 часа, мм.
S - Снежный покров - Высота снежного покрова, см. При наведении курсора мыши на число - состояние снежного покрова и степень покрытия местности в баллах.